�v������,1F���[���G�A�R��(kWh),1F���͔�(kWh),2F�n�[�g���ƕ�(kWh),2F������(kWh),2F���̑�(kWh),2F�S�M������i�������j(kWh),2F�S�M������i�n�[�g�j(kWh),2F�S�M������i�������k�j(kWh),2F�S�M������i��������j(kWh),�T�[�o���[��(kWh),3F���q���b�J�[(kWh),3F�X�^�W�I(kWh),3FBEMS��(kWh),3F���̑�(kWh),3F�S�M������i���c���j(kWh),3F�S�M������i�H���j(kWh)
2022/9/1 0:00,0,0,0,0,0,0.02,0.05,0.05,0.06,0.1,0,0,0,0,0.12,0.03
2022/9/1 0:10,0,0,0,0,0,0.02,0.06,0.06,0.05,0.1,0,0,0,0,0.12,0.04
2022/9/1 0:20,0,0,0,0,0,0.02,0.05,0.05,0.06,0,0,0,0,0,0.12,0.04
2022/9/1 0:30,0,0,0,0,0,0.02,0.05,0.05,0.05,0.1,0,0,0,0,0.12,0.04
2022/9/1 0:40,0,0,0,0,0,0.01,0.05,0.06,0.06,0.1,0,0,0,0,0.12,0.03
2022/9/1 0:50,0,0,0,0,0,0.02,0.06,0.05,0.05,0.1,0,0,0,0,0.13,0.04
2022/9/1 1:00,0,0,0,0,0,0.02,0.05,0.06,0.06,0,0,0,0,0,0.12,0.04
2022/9/1 1:10,0,0,0,0,0,0.02,0.05,0.05,0.05,0.1,0,0,0,0,0.12,0.04
2022/9/1 1:20,0,0,0,0,0,0.02,0.05,0.06,0.06,0.1,0,0,0,0,0.13,0.04
2022/9/1 1:30,0,0,0,0,0,0.02,0.05,0.05,0.06,0.1,0,0,0,0,0.12,0.03
2022/9/1 1:40,0,0,0,0,0,0.02,0.06,0.06,0.05,0,0,0,0,0,0.12,0.04
2022/9/1 1:50,0,0,0,0,0,0.02,0.05,0.05,0.06,0.1,0,0,0,0,0.12,0.04
2022/9/1 2:00,0,0,0,0,0.1,0.02,0.05,0.06,0.05,0.1,0,0,0,0.1,0.12,0.04
2022/9/1 2:10,0,0,0,0,0,0.02,0.05,0.05,0.06,0.1,0,0,0,0,0.13,0.04
2022/9/1 2:20,0,0,0,0,0,0.02,0.06,0.06,0.05,0.1,0,0,0,0,0.12,0.03
2022/9/1 2:30,0,0,0,0,0,0.01,0.05,0.05,0.06,0.1,0,0,0,0,0.12,0.04
2022/9/1 2:40,0,0,0,0,0,0.02,0.05,0.06,0.05,0.1,0,0,0,0,0.12,0.04
2022/9/1 2:50,0,0,0,0,0,0.02,0.05,0.05,0.06,0.1,0,0,0,0,0.12,0.04
2022/9/1 3:00,0,0,0,0,0,0.02,0.06,0.06,0.06,0.1,0,0,0,0,0.13,0.04
2022/9/1 3:10,0,0,0,0,0,0.02,0.05,0.05,0.05,0.1,0,0,0,0,0.12,0.03
2022/9/1 3:20,0,0,0,0,0,0.02,0.05,0.05,0.05,0.1,0,0,0,0,0.12,0.04
2022/9/1 3:30,0,0,0,0,0,0.02,0.05,0.06,0.06,0.1,0,0,0,0,0.13,0.04
2022/9/1 3:40,0,0,0,0,0,0.02,0.05,0.05,0.06,0.1,0,0,0,0,0.12,0.04
2022/9/1 3:50,0,0,0,0,0,0.02,0.05,0.06,0.05,0.1,0,0,0,0,0.12,0.03
2022/9/1 4:00,0,0,0,0,0,0.02,0.06,0.05,0.06,0.1,0,0,0,0,0.12,0.04
2022/9/1 4:10,0,0,0,0,0,0.01,0.05,0.06,0.05,0,0,0,0,0,0.12,0.04
2022/9/1 4:20,0,0,0,0,0,0.02,0.05,0.05,0.05,0.1,0,0,0,0,0.12,0.04
2022/9/1 4:30,0,0,0,0,0,0.02,0.05,0.06,0.06,0.1,0,0,0,0,0.13,0.03
2022/9/1 4:40,0,0,0,0,0,0.02,0.06,0.05,0.06,0.1,0,0,0,0,0.12,0.04
2022/9/1 4:50,0,0,0,0,0,0.02,0.05,0.05,0.05,0.1,0,0,0,0,0.12,0.04
2022/9/1 5:00,0,0,0,0,0,0.02,0.05,0.06,0.05,0.1,0,0,0,0,0.12,0.04
2022/9/1 5:10,0,0,0,0,0,0.02,0.05,0.05,0.06,0.1,0,0,0,0,0.11,0.03
2022/9/1 5:20,0,0,0,0,0,0.02,0.05,0.05,0.05,0.1,0,0,0,0,0.13,0.04
2022/9/1 5:30,0,0,0,0,0,0.01,0.05,0.06,0.06,0.1,0,0,0,0,0.12,0.04
2022/9/1 5:40,0,0,0,0,0,0.02,0.06,0.05,0.05,0.1,0,0,0,0,0.12,0.04
2022/9/1 5:50,0,0,0,0,0,0.02,0.05,0.06,0.06,0.2,0,0,0,0,0.12,0.03
2022/9/1 6:00,0,0,0,0,0.1,0.02,0.05,0.05,0.05,0,0,0,0,0.1,0.12,0.04
2022/9/1 6:10,0,0,0,0,0.3,0.02,0.05,0.05,0.05,0.2,0,0,0,0.3,0.12,0.04
2022/9/1 6:20,0,0,0,0,0.72,0.02,0.05,0.06,0.06,0.1,0,0,0,0.7,0.12,0.03
2022/9/1 6:30,0,0,0,0,0.71,0.02,0.05,0.05,0.05,0,0,0,0,0.7,0.13,0.04
2022/9/1 6:40,0,0,0,0,1.32,0.02,0.06,0.06,0.06,0.2,0,0,0,1.3,0.12,0.04
2022/9/1 6:50,0,0,0.4,0.1,1.64,0.01,0.05,0.05,0.05,0,0,0,0,1.6,0.12,0.04
2022/9/1 7:00,0,0,0.5,0.3,1.64,0.02,0.05,0.05,0.05,0.1,0,0,0,1.62,0.12,0.03
2022/9/1 7:10,0,0,0.5,0.2,1.65,0.02,0.05,0.05,0.06,0.1,0,0,0,1.6,0.12,0.04
2022/9/1 7:20,0,0.1,0.3,0.3,1.34,0.02,0.05,0.06,0.05,0.1,0,0,0,1.3,0.11,0.04
2022/9/1 7:30,0,0.2,0.2,0.2,1.44,0.02,0.06,0.05,0.05,0,0,0,0,1.47,0.13,0.03
2022/9/1 7:40,0,0,0.2,0.2,1.54,0.02,0.07,0.05,0.06,0.1,0.1,0,0,1.57,0.11,0.04
2022/9/1 7:50,0,0.1,0.3,0.1,1.35,0.01,0.06,0.06,0.05,0,0,0,0,1.36,0.13,0.04
2022/9/1 8:00,0,0,0.2,0.1,0.54,0.02,0.06,0.05,0.05,0,0,0,0,0.52,0.12,0.03
2022/9/1 8:10,0,0,0.2,0,1.24,0.02,0.06,0.05,0.05,0.1,0,0,0,1.22,0.12,0.04
2022/9/1 8:20,0,0,0.3,0.1,1.44,0.02,0.06,0.05,0.06,0,0,0,0,1.41,0.12,0.04
2022/9/1 8:30,0,0,0.1,0.2,1.45,0.02,0.07,0.06,0.05,0.1,0,0,0,1.42,0.12,0.03
2022/9/1 8:40,0,0,0.2,0,1.34,0.02,0.06,0.05,0.05,0.1,0,0,0,1.32,0.12,0.04
2022/9/1 8:50,0,0,0.2,0,1.24,0.01,0.06,0.05,0.05,0,0,0,0,1.21,0.12,0.04
2022/9/1 9:00,0,0,0.2,0,1.34,0.02,0.06,0.05,0.06,0.1,0,0,0,1.31,0.12,0.03
2022/9/1 9:10,0,0,0.3,0,1.25,0.02,0.06,0.05,0.05,0,0,0,0,1.21,0.12,0.04
2022/9/1 9:20,0,0,0.2,0,1.14,0.02,0.07,0.06,0.05,0.1,0,0,0.04,1.1,0.12,0.04
2022/9/1 9:30,0,0,0.2,0,0.54,0.02,0.06,0.05,0.06,0.1,0,0,0.06,0.5,0.12,0.03
2022/9/1 9:40,0,0,0.2,0,1.44,0.02,0.06,0.05,0.05,0,0,0,0.12,1.4,0.12,0.04
2022/9/1 9:50,0,0,0.2,0,1.25,0.02,0.06,0.06,0.05,0.1,0,0,0.17,1.2,0.12,0.04
2022/9/1 10:00,0,0,0.2,0,1.24,0.01,0.07,0.05,0.05,0,0,0,0.18,1.2,0.12,0.04
2022/9/1 10:10,0,0.1,0.1,0,1.24,0.02,0.06,0.05,0.06,0,0,0,0.19,1.2,0.13,0.03
2022/9/1 10:20,0,0.2,0.2,0,1.15,0.02,0.06,0.06,0.05,0.1,0,0,0.09,1.1,0.12,0.04
2022/9/1 10:30,0,0.1,0.3,0,1.14,0.02,0.06,0.05,0.06,0.1,0,0,0.09,1.1,0.12,0.04
2022/9/1 10:40,0,0.2,0.1,0,1.14,0.02,0.07,0.05,0.05,0,0,0,0.1,1.1,0.12,0.04
2022/9/1 10:50,0,0.2,0.3,0,1.34,0.02,0.06,0.06,0.05,0.1,0,0,0.1,1.3,0.12,0.03
2022/9/1 11:00,0,0.2,0.2,0,0.95,0.02,0.06,0.05,0.06,0,0,0,0.09,0.9,0.12,0.04
2022/9/1 11:10,0,0.2,0.1,0,0.44,0.01,0.06,0.06,0.05,0.1,0,0,0.1,0.4,0.12,0.04
2022/9/1 11:20,0,0.1,0,0,1.24,0.02,0.07,0.05,0.05,0,0,0,0.1,1.2,0.12,0.03
2022/9/1 11:30,0,0,0,0,1.45,0.02,0.06,0.05,0.06,0.1,0,0,0.09,1.41,0.12,0.04
2022/9/1 11:40,0,0.1,0,0,1.14,0.02,0.06,0.06,0.05,0.1,0,0,0.06,1.12,0.12,0.04
2022/9/1 11:50,0,0.1,0,0,1.24,0.02,0.07,0.05,0.05,0,0,0,0.02,1.22,0.13,0.04
2022/9/1 12:00,0,0.4,0.2,0,1.15,0.02,0.06,0.05,0.06,0.1,0,0,0.02,1.12,0.12,0.03
2022/9/1 12:10,0,0.3,0.1,0,1.14,0.02,0.06,0.06,0.05,0.1,0,0,0.03,1.13,0.12,0.04
2022/9/1 12:20,0,0.4,0.1,0,1.24,0.02,0.06,0.05,0.06,0.1,0,0,0.01,1.22,0.12,0.04
2022/9/1 12:30,0,0.4,0,0,1.14,0.01,0.07,0.06,0.05,0.1,0,0,0.01,1.13,0.12,0.04
2022/9/1 12:40,0,0.3,0.2,0.1,1.05,0.02,0.06,0.05,0.06,0.1,0,0,0.03,1.02,0.13,0.03
2022/9/1 12:50,0,0.4,0.1,0,1.24,0.02,0.06,0.05,0.05,0,0,0,0.01,1.23,0.12,0.04
2022/9/1 13:00,0,0,0.1,0,1.24,0.02,0.07,0.06,0.05,0.1,0,0,0.03,1.2,0.12,0.04
2022/9/1 13:10,0,0.1,0.2,0,0.95,0.02,0.06,0.05,0.06,0.1,0,0,0.04,0.9,0.12,0.04
2022/9/1 13:20,0,0.1,0,0,0.64,0.02,0.06,0.05,0.05,0.1,0,0,0.07,0.6,0.13,0.03
2022/9/1 13:30,0,0.1,0.1,0,1.24,0.02,0.06,0.06,0.06,0,0,0,0.09,1.2,0.12,0.04
2022/9/1 13:40,0,0.1,0.1,0,1.34,0.01,0.07,0.05,0.05,0.1,0,0,0.1,1.3,0.12,0.04
2022/9/1 13:50,0,0,0.1,0,1.35,0.02,0.06,0.05,0.05,0.2,0,0,0.1,1.3,0.12,0.04
2022/9/1 14:00,0,0.1,0.1,0,1.34,0.02,0.06,0.06,0.06,0,0,0,0.1,1.3,0.12,0.03
2022/9/1 14:10,0,0.1,0.2,0,1.34,0.02,0.07,0.05,0.05,0.1,0,0,0.1,1.3,0.12,0.04
2022/9/1 14:20,0,0,0.1,0,1.35,0.02,0.06,0.05,0.05,0.1,0,0,0.11,1.3,0.12,0.04
2022/9/1 14:30,0,0.2,0.1,0,1.34,0.02,0.06,0.06,0.06,0.1,0,0,0.1,1.31,0.12,0.04
2022/9/1 14:40,0,0.2,0.1,0,1.24,0.02,0.06,0.05,0.05,0.1,0,0,0.1,1.2,0.12,0.03
2022/9/1 14:50,0,0.2,0.1,0,1.24,0.01,0.07,0.05,0.06,0,0,0,0.1,1.2,0.13,0.04
2022/9/1 15:00,0,0.2,0.1,0,1.35,0.02,0.06,0.06,0.05,0.1,0,0,0.1,1.3,0.12,0.04
2022/9/1 15:10,0,0.1,0.1,0,1.23,0.02,0.06,0.05,0.05,0.1,0,0,0.11,1.2,0.12,0.03
2022/9/1 15:20,0,0.2,0.1,0,1.34,0.02,0.07,0.05,0.06,0,0,0,0.1,1.3,0.12,0.04
2022/9/1 15:30,0,0.2,0,0,0.74,0.02,0.06,0.06,0.05,0.1,0,0,0.1,0.7,0.12,0.04
2022/9/1 15:40,0,0,0.1,0,1.04,0.02,0.06,0.05,0.05,0.1,0,0,0.1,1,0.12,0.04
2022/9/1 15:50,0.08,0.1,0.2,0,1.23,0.02,0.06,0.05,0.06,0.1,0,0,0.1,1.2,0.12,0.03
2022/9/1 16:00,0.16,0.1,0.1,0,1.34,0.01,0.06,0.06,0.05,0.1,0,0,0.1,1.3,0.12,0.04
2022/9/1 16:10,0.15,0,0.1,0,1.14,0.02,0.07,0.05,0.05,0,0,0,0.1,1.1,0.12,0.04
2022/9/1 16:20,0.05,0.1,0,0,1.24,0.02,0.06,0.05,0.06,0.1,0,0,0.1,1.2,0.12,0.04
2022/9/1 16:30,0,0,0.2,0,1.14,0.02,0.06,0.06,0.05,0.1,0,0,0.1,1.1,0.12,0.03
2022/9/1 16:40,0,0.1,0.2,0,1.23,0.02,0.06,0.05,0.05,0,0,0,0.09,1.22,0.12,0.04
2022/9/1 16:50,0.03,0.1,0.1,0,1.14,0.02,0.07,0.06,0.06,0.1,0,0,0.09,1.12,0.12,0.04
2022/9/1 17:00,0,0,0,0,1.14,0.02,0.06,0.05,0.05,0,0,0,0.1,1.1,0.13,0.04
2022/9/1 17:10,0,0.1,0.3,0,1.14,0.02,0.06,0.05,0.06,0.1,0,0,0.07,1.1,0.12,0.03
2022/9/1 17:20,0,0.1,0.1,0,0.53,0.01,0.07,0.06,0.05,0.1,0,0,0.06,0.5,0.12,0.04
2022/9/1 17:30,0,0.1,0.1,0,1.14,0.02,0.06,0.05,0.06,0.1,0,0,0.04,1.13,0.12,0.04
2022/9/1 17:40,0,0,0.2,0,1.24,0.02,0.06,0.05,0.05,0,0,0,0.04,1.23,0.12,0.04
2022/9/1 17:50,0,0,0,0,1.24,0.02,0.07,0.05,0.05,0.1,0,0,0.02,1.24,0.12,0.03
2022/9/1 18:00,0,0,0.1,0,1.13,0.02,0.06,0.06,0.06,0.1,0,0,0.03,1.13,0.12,0.04
2022/9/1 18:10,0,0,0.2,0,1.14,0.02,0.06,0.05,0.05,0.1,0,0,0.03,1.14,0.12,0.04
2022/9/1 18:20,0,0,0,0,0.64,0.02,0.06,0.05,0.05,0,0,0,0.03,0.63,0.12,0.03
2022/9/1 18:30,0,0,0.2,0,0.94,0.01,0.07,0.06,0.06,0.1,0,0,0.02,0.93,0.12,0.04
2022/9/1 18:40,0,0,0,0,1.14,0.02,0.06,0.05,0.05,0.1,0,0,0.02,1.12,0.13,0.04
2022/9/1 18:50,0,0,0,0,1.03,0.02,0.06,0.06,0.05,0,0,0,0.02,1.02,0.12,0.04
2022/9/1 19:00,0,0,0.2,0,1.03,0.02,0.07,0.05,0.06,0.1,0,0,0.03,1.02,0.12,0.03
2022/9/1 19:10,0,0,0,0,1.03,0.02,0.06,0.05,0.05,0.1,0,0,0.03,1,0.12,0.04
2022/9/1 19:20,0,0,0,0,1.03,0.02,0.06,0.06,0.06,0,0,0,0.01,1,0.12,0.04
2022/9/1 19:30,0,0,0.1,0,0.94,0.02,0.07,0.05,0.05,0.1,0,0,0.03,0.9,0.13,0.04
2022/9/1 19:40,0,0,0.1,0,1.03,0.02,0.06,0.05,0.06,0.1,0,0,0.02,1,0.12,0.03
2022/9/1 19:50,0,0,0,0,1.03,0.01,0.07,0.06,0.05,0,0,0,0.03,1,0.12,0.04
2022/9/1 20:00,0,0,0.1,0,0.93,0.02,0.06,0.05,0.06,0.1,0,0,0.03,0.9,0.12,0.04
2022/9/1 20:10,0,0,0.1,0,1.03,0.02,0.06,0.06,0.05,0.1,0,0,0.01,1,0.13,0.04
2022/9/1 20:20,0,0,0,0,1.04,0.02,0.07,0.05,0.05,0,0,0,0.03,1,0.12,0.04
2022/9/1 20:30,0,0,0,0,0.93,0.02,0.06,0.06,0.06,0.1,0,0,0.02,0.9,0.12,0.03
2022/9/1 20:40,0,0,0.1,0,0.93,0.02,0.06,0.05,0.06,0,0,0,0.03,0.9,0.12,0.04
2022/9/1 20:50,0,0,0,0,0.43,0.02,0.07,0.06,0.05,0.1,0,0,0.02,0.4,0.13,0.04
2022/9/1 21:00,0,0,0,0,0.74,0.02,0.06,0.05,0.06,0.1,0,0,0.03,0.7,0.12,0.04
2022/9/1 21:10,0,0,0.1,0,0.63,0.02,0.07,0.06,0.05,0,0,0,0.02,0.6,0.12,0.04
2022/9/1 21:20,0,0,0.1,0,0.63,0.02,0.06,0.05,0.06,0.1,0,0,0.03,0.6,0.12,0.03
2022/9/1 21:30,0,0,0,0,0.73,0.01,0.06,0.05,0.05,0.1,0,0,0.03,0.7,0.12,0.04
2022/9/1 21:40,0,0,0.1,0,0.63,0.02,0.07,0.06,0.06,0,0,0,0.02,0.6,0.12,0.04
2022/9/1 21:50,0,0,0,0,0.43,0.02,0.06,0.05,0.05,0.1,0,0,0.03,0.4,0.13,0.04
2022/9/1 22:00,0,0,0,0,0.74,0.02,0.07,0.05,0.05,0,0,0,0.03,0.7,0.12,0.03
2022/9/1 22:10,0,0,0,0,0.41,0.02,0.06,0.06,0.06,0.1,0,0,0,0.4,0.12,0.04
2022/9/1 22:20,0,0,0,0,0,0.02,0.06,0.05,0.05,0.1,0,0,0,0,0.12,0.04
2022/9/1 22:30,0,0,0,0,0,0.02,0.07,0.06,0.06,0,0,0,0,0,0.12,0.04
2022/9/1 22:40,0,0,0,0,0,0.02,0.06,0.05,0.05,0.1,0,0,0.06,0,0.12,0.03
2022/9/1 22:50,0,0,0,0,0,0.01,0.06,0.05,0.05,0.1,0,0,0,0,0.13,0.04
2022/9/1 23:00,0,0,0,0,0,0.02,0.07,0.06,0.06,0,0,0,0,0,0.12,0.04
2022/9/1 23:10,0,0,0,0,0,0.02,0.06,0.05,0.05,0.1,0,0,0,0,0.12,0.04
2022/9/1 23:20,0,0,0,0,0,0.02,0.06,0.06,0.06,0.1,0,0,0,0,0.12,0.03
2022/9/1 23:30,0,0,0,0,0,0.02,0.05,0.05,0.05,0,0,0,0,0,0.13,0.04
2022/9/1 23:40,0,0,0,0,0,0.02,0.05,0.05,0.06,0.1,0,0,0,0,0.12,0.04
2022/9/1 23:50,0,0,0,0,0,0.02,0.06,0.06,0.05,0.1,0,0,0,0,0.12,0.04
2022/9/2 0:00,0,0,0,0,0,0.02,0.05,0.05,0.06,0.1,0,0,0,0,0.12,0.03
2022/9/2 0:10,0,0,0,0,0,0.02,0.05,0.06,0.05,0,0,0,0,0,0.13,0.04
2022/9/2 0:20,0,0,0,0,0,0.01,0.05,0.05,0.06,0.1,0,0,0,0,0.12,0.04
2022/9/2 0:30,0,0,0,0,0,0.02,0.06,0.06,0.05,0,0,0,0,0,0.12,0.04
2022/9/2 0:40,0,0,0,0,0,0.02,0.05,0.05,0.06,0.1,0,0,0,0,0.13,0.04
2022/9/2 0:50,0,0,0,0,0,0.02,0.05,0.06,0.05,0.1,0,0,0,0,0.12,0.03
2022/9/2 1:00,0,0,0,0,0,0.02,0.05,0.05,0.06,0,0,0,0,0,0.12,0.04
2022/9/2 1:10,0,0,0,0,0.1,0.02,0.06,0.05,0.05,0.1,0,0,0,0.1,0.13,0.04
2022/9/2 1:20,0,0,0,0,0,0.02,0.05,0.06,0.06,0.1,0,0,0,0,0.12,0.04
2022/9/2 1:30,0,0,0,0,0,0.02,0.05,0.05,0.05,0.1,0,0,0,0,0.12,0.03
2022/9/2 1:40,0,0,0,0,0,0.02,0.05,0.06,0.06,0,0,0,0,0,0.12,0.04
2022/9/2 1:50,0,0,0,0,0,0.02,0.06,0.05,0.05,0.1,0,0,0,0,0.13,0.04
2022/9/2 2:00,0,0,0,0,0,0.01,0.05,0.06,0.05,0.1,0,0,0,0,0.12,0.04
2022/9/2 2:10,0,0,0,0,0,0.02,0.05,0.05,0.06,0,0,0,0,0,0.12,0.04
2022/9/2 2:20,0,0,0,0,0,0.02,0.05,0.05,0.05,0.1,0,0,0,0,0.12,0.03
2022/9/2 2:30,0,0,0,0,0,0.02,0.05,0.06,0.06,0.1,0,0,0,0,0.13,0.04
2022/9/2 2:40,0,0,0,0,0,0.02,0.06,0.05,0.05,0.1,0,0,0,0,0.12,0.04
2022/9/2 2:50,0,0,0,0,0,0.02,0.05,0.06,0.06,0,0,0,0,0,0.12,0.04
2022/9/2 3:00,0,0,0,0,0,0.02,0.05,0.05,0.05,0.1,0,0,0,0,0.12,0.03
2022/9/2 3:10,0,0,0,0,0,0.02,0.05,0.06,0.06,0.1,0,0,0,0,0.13,0.04
2022/9/2 3:20,0,0,0,0,0,0.02,0.06,0.05,0.05,0.1,0,0,0,0,0.12,0.04
2022/9/2 3:30,0,0,0,0,0,0.01,0.05,0.05,0.05,0,0,0,0,0,0.12,0.04
2022/9/2 3:40,0,0,0,0,0,0.02,0.05,0.06,0.06,0.1,0,0,0,0,0.12,0.04
2022/9/2 3:50,0,0,0,0,0,0.02,0.05,0.05,0.05,0.1,0,0,0,0,0.12,0.03
2022/9/2 4:00,0,0,0,0,0,0.02,0.05,0.05,0.06,0,0,0,0,0,0.12,0.04
2022/9/2 4:10,0,0,0,0,0,0.02,0.06,0.06,0.05,0.1,0,0,0,0,0.13,0.04
2022/9/2 4:20,0,0,0,0,0,0.02,0.05,0.05,0.05,0.1,0,0,0,0,0.12,0.04
2022/9/2 4:30,0,0,0,0,0,0.02,0.05,0.06,0.06,0.1,0,0,0,0,0.12,0.03
2022/9/2 4:40,0,0,0,0,0,0.02,0.05,0.05,0.05,0,0,0,0,0,0.12,0.04
2022/9/2 4:50,0,0,0,0,0,0.02,0.05,0.05,0.06,0.1,0,0,0,0,0.12,0.04
2022/9/2 5:00,0,0,0,0,0,0.01,0.06,0.06,0.05,0,0,0,0,0,0.12,0.03
2022/9/2 5:10,0,0,0,0,0.1,0.02,0.05,0.05,0.05,0.1,0,0,0,0.1,0.12,0.04
2022/9/2 5:20,0,0,0,0,0,0.02,0.05,0.05,0.06,0.1,0,0,0,0,0.13,0.04
2022/9/2 5:30,0,0,0,0,0,0.02,0.05,0.06,0.05,0,0,0,0,0,0.12,0.04
2022/9/2 5:40,0,0,0,0,0,0.02,0.05,0.05,0.05,0.1,0,0,0,0,0.12,0.03
2022/9/2 5:50,0,0,0,0,0,0.02,0.06,0.05,0.06,0.1,0,0,0,0,0.12,0.04
2022/9/2 6:00,0,0,0,0,0,0.02,0.05,0.06,0.05,0.1,0,0,0,0,0.12,0.04
2022/9/2 6:10,0,0,0,0,0.1,0.01,0.05,0.05,0.05,0,0,0,0,0.1,0.12,0.03
2022/9/2 6:20,0,0,0,0,0.61,0.02,0.05,0.05,0.06,0.1,0,0,0,0.6,0.12,0.04
2022/9/2 6:30,0,0,0,0,0.41,0.02,0.05,0.06,0.05,0.1,0,0,0,0.4,0.13,0.04
2022/9/2 6:40,0,0,0,0,0.72,0.02,0.05,0.05,0.05,0,0,0,0,0.7,0.12,0.04
2022/9/2 6:50,0,0,0.5,0.2,0.44,0.02,0.05,0.05,0.06,0.1,0,0,0,0.4,0.12,0.03
2022/9/2 7:00,0,0,0.4,0.2,1.34,0.02,0.06,0.06,0.05,0,0,0,0,1.31,0.12,0.04
2022/9/2 7:10,0,0,0.3,0.3,1.44,0.02,0.05,0.05,0.05,0.1,0,0,0,1.4,0.12,0.04
2022/9/2 7:20,0,0,0.2,0.1,1.33,0.01,0.05,0.05,0.05,0,0,0,0,1.31,0.12,0.03
2022/9/2 7:30,0,0,0.2,0.2,1.14,0.02,0.05,0.06,0.06,0.1,0,0,0,1.17,0.12,0.04
2022/9/2 7:40,0,0,0.2,0,1.24,0.02,0.06,0.05,0.05,0,0,0,0,1.27,0.12,0.04
2022/9/2 7:50,0,0,0.2,0.1,1.04,0.02,0.06,0.05,0.05,0,0,0,0,1.06,0.12,0.03
2022/9/2 8:00,0,0.1,0.2,0.1,1.03,0.02,0.07,0.05,0.05,0.1,0,0,0,1.06,0.12,0.04
2022/9/2 8:10,0,0.1,0.2,0,1.04,0.02,0.06,0.06,0.06,0,0,0,0,1,0.12,0.04
2022/9/2 8:20,0,0.1,0.2,0.1,1.24,0.02,0.06,0.05,0.05,0.1,0,0,0,1.2,0.13,0.04
2022/9/2 8:30,0,0.1,0.2,0.1,1.04,0.01,0.06,0.05,0.05,0,0,0,0,1,0.12,0.03
2022/9/2 8:40,0,0.1,0.1,0.1,1.14,0.02,0.07,0.05,0.05,0,0,0,0,1.1,0.12,0.04
2022/9/2 8:50,0,0.1,0.1,0.1,1.03,0.02,0.06,0.06,0.06,0.1,0,0,0,1,0.12,0.04
2022/9/2 9:00,0,0.2,0.2,0,0.44,0.02,0.06,0.05,0.05,0.1,0,0,0,0.4,0.12,0.03
2022/9/2 9:10,0,0,0.1,0.1,0.94,0.02,0.06,0.05,0.05,0,0,0,0,0.9,0.12,0.04
2022/9/2 9:20,0,0.1,0,0.1,1.24,0.02,0.06,0.05,0.05,0.1,0,0,0,1.2,0.12,0.04
2022/9/2 9:30,0,0.1,0.2,0.1,1.04,0.02,0.07,0.06,0.05,0,0,0,0,1,0.12,0.03
2022/9/2 9:40,0,0.1,0.2,0.1,1.03,0.01,0.06,0.05,0.06,0.1,0,0,0,1,0.12,0.04
2022/9/2 9:50,0,0,0.1,0,1.14,0.02,0.06,0.05,0.05,0.1,0.1,0,0,1.1,0.12,0.04
2022/9/2 10:00,0,0.1,0.2,0.1,1.14,0.02,0.06,0.05,0.05,0,0,0,0,1.1,0.12,0.03
2022/9/2 10:10,0,0.1,0.1,0,1.14,0.02,0.07,0.06,0.05,0.1,0,0,0,1.1,0.13,0.04
2022/9/2 10:20,0,0,0.1,0,1.03,0.02,0.06,0.05,0.05,0,0,0,0,1,0.11,0.04
2022/9/2 10:30,0,0,0.2,0,1.04,0.02,0.06,0.05,0.05,0.1,0,0,0,1,0.12,0.03
2022/9/2 10:40,0,0,0.1,0,1.14,0.01,0.06,0.05,0.06,0,0,0,0,1.1,0.12,0.04
2022/9/2 10:50,0,0,0.1,0,0.94,0.02,0.06,0.06,0.05,0.1,0,0,0,0.9,0.13,0.04
2022/9/2 11:00,0,0,0.1,0,0.83,0.02,0.07,0.05,0.05,0,0,0,0,0.8,0.11,0.03
2022/9/2 11:10,0,0,0.2,0,0.64,0.02,0.06,0.05,0.05,0.1,0,0,0,0.6,0.12,0.04
2022/9/2 11:20,0,0,0.2,0,1.04,0.02,0.06,0.05,0.05,0,0,0,0,1,0.12,0.04
2022/9/2 11:30,0,0,0.1,0,1.04,0.02,0.06,0.06,0.06,0.1,0,0,0,1.01,0.12,0.03
2022/9/2 11:40,0,0,0.2,0,1.14,0.01,0.07,0.05,0.05,0,0,0,0,1.12,0.13,0.04
2022/9/2 11:50,0,0,0.1,0,1.03,0.02,0.06,0.05,0.05,0.1,0,0,0,1.02,0.12,0.04
2022/9/2 12:00,0,0,0.2,0,1.14,0.02,0.06,0.06,0.06,0,0,0,0,1.11,0.12,0.04
2022/9/2 12:10,0,0,0.1,0,1.04,0.02,0.07,0.05,0.05,0.1,0,0,0,1.02,0.13,0.04
2022/9/2 12:20,0,0,0.1,0,1.04,0.02,0.06,0.06,0.06,0,0,0,0,1.02,0.12,0.03
2022/9/2 12:30,0,0,0.2,0,0.94,0.02,0.06,0.05,0.05,0,0,0,0,0.92,0.12,0.04
2022/9/2 12:40,0,0,0.1,0,0.83,0.02,0.07,0.05,0.05,0.1,0,0,0,0.82,0.13,0.04
2022/9/2 12:50,0,0,0.1,0,0.84,0.02,0.06,0.06,0.06,0,0,0,0,0.82,0.09,0.03
2022/9/2 13:00,0,0,0.2,0,0.94,0.02,0.06,0.05,0.06,0.1,0,0,0,0.9,0.07,0.04
2022/9/2 13:10,0,0,0,0,0.54,0.01,0.06,0.06,0.05,0,0,0,0,0.5,0.07,0.04
2022/9/2 13:20,0,0,0.1,0,1.13,0.02,0.07,0.05,0.05,0.1,0,0,0,1.1,0.08,0.04
2022/9/2 13:30,0,0,0.2,0,1.14,0.02,0.06,0.05,0.06,0.1,0,0,0,1.1,0.07,0.03
2022/9/2 13:40,0,0,0.1,0,1.04,0.02,0.06,0.06,0.05,0,0,0,0,1.01,0.11,0.04
2022/9/2 13:50,0,0,0.1,0,1.04,0.02,0.07,0.05,0.05,0.1,0,0,0,1.02,0.12,0.04
2022/9/2 14:00,0,0,0.2,0,1.04,0.02,0.06,0.05,0.06,0,0,0,0,1,0.12,0.04
2022/9/2 14:10,0,0,0.3,0,0.83,0.02,0.06,0.06,0.05,0,0,0,0,0.8,0.12,0.03
2022/9/2 14:20,0,0.1,0.2,0,0.84,0.02,0.07,0.05,0.05,0.1,0,0,0,0.8,0.13,0.04
2022/9/2 14:30,0,0,0.1,0,0.64,0.01,0.06,0.06,0.06,0,0,0,0,0.6,0.12,0.04
2022/9/2 14:40,0,0.1,0.3,0,1.14,0.02,0.06,0.05,0.05,0.1,0,0,0,1.13,0.12,0.04
2022/9/2 14:50,0,0,0.1,0,1.14,0.02,0.07,0.05,0.06,0,0,0,0,1.14,0.13,0.04
2022/9/2 15:00,0,0,0.3,0.1,1.13,0.02,0.06,0.06,0.05,0.1,0,0,0,1.14,0.12,0.03
2022/9/2 15:10,0,0,0.1,0.2,1.04,0.02,0.06,0.05,0.05,0,0,0,0,1.04,0.12,0.04
2022/9/2 15:20,0,0.1,0.2,0.3,1.24,0.02,0.06,0.06,0.06,0.1,0,0,0,1.24,0.12,0.04
2022/9/2 15:30,0,0,0.2,0.2,0.44,0.02,0.07,0.05,0.05,0,0,0,0,0.45,0.13,0.03
2022/9/2 15:40,0,0,0.2,0,1.14,0.02,0.06,0.05,0.05,0,0,0,0,1.14,0.12,0.04
2022/9/2 15:50,0,0,0.1,0,1.23,0.01,0.06,0.05,0.06,0.1,0,0,0,1.25,0.17,0.04
2022/9/2 16:00,0,0,0.2,0,1.14,0.02,0.07,0.06,0.05,0,0,0,0,1.15,0.19,0.04
2022/9/2 16:10,0,0,0.2,0,1.14,0.02,0.06,0.05,0.06,0.1,0,0,0,1.15,0.19,0.05
2022/9/2 16:20,0,0,0.1,0,1.04,0.02,0.06,0.06,0.05,0.1,0,0,0,1.05,0.2,0.05
2022/9/2 16:30,0,0,0.2,0,0.54,0.02,0.07,0.05,0.05,0,0,0,0,0.55,0.19,0.05
2022/9/2 16:40,0,0,0.1,0,0.73,0.02,0.06,0.06,0.06,0.1,0,0,0,0.75,0.19,0.05
2022/9/2 16:50,0,0,0.2,0,1.04,0.02,0.06,0.05,0.05,0.1,0,0,0,1.05,0.2,0.06
2022/9/2 17:00,0,0,0.1,0,1.04,0.02,0.07,0.05,0.06,0,0,0,0,1.05,0.19,0.06
2022/9/2 17:10,0,0,0.1,0,0.84,0.01,0.06,0.06,0.05,0.1,0,0,0,0.85,0.19,0.06
2022/9/2 17:20,0,0,0.3,0,1.04,0.02,0.06,0.05,0.06,0,0,0,0,1.05,0.2,0.07
2022/9/2 17:30,0,0,0.2,0,1.03,0.02,0.07,0.06,0.05,0.1,0,0,0,1.05,0.19,0.07
2022/9/2 17:40,0,0,0,0,1.04,0.02,0.06,0.05,0.06,0,0,0,0,1.02,0.2,0.07
2022/9/2 17:50,0,0,0.2,0,1.04,0.02,0.07,0.05,0.05,0.1,0,0,0,1.03,0.19,0.06
2022/9/2 18:00,0,0.1,0.1,0,1.14,0.02,0.06,0.06,0.06,0,0,0,0,1.12,0.18,0.07
2022/9/2 18:10,0,0.2,0.1,0,1.14,0.02,0.06,0.05,0.05,0.1,0,0,0,1.12,0.17,0.05
2022/9/2 18:20,0,0,0.2,0,0.83,0.02,0.07,0.06,0.06,0,0,0,0,0.81,0.17,0.05
2022/9/2 18:30,0,0,0.1,0,0.54,0.02,0.06,0.05,0.05,0,0,0,0,0.5,0.17,0.05
2022/9/2 18:40,0,0,0.2,0,1.04,0.01,0.06,0.05,0.05,0.1,0,0,0,1,0.17,0.05
2022/9/2 18:50,0,0,0.1,0,1.24,0.02,0.07,0.06,0.06,0,0,0,0,1.2,0.17,0.05
2022/9/2 19:00,0,0,0.2,0,0.94,0.02,0.06,0.05,0.06,0.1,0,0,0,0.9,0.18,0.05
2022/9/2 19:10,0,0,0.2,0,1.03,0.02,0.07,0.06,0.05,0,0,0,0,1,0.17,0.05
2022/9/2 19:20,0,0,0.1,0,1.14,0.02,0.06,0.05,0.05,0.1,0,0,0,1.1,0.17,0.05
2022/9/2 19:30,0,0,0.2,0,0.64,0.02,0.07,0.06,0.06,0,0,0,0,0.6,0.17,0.06
2022/9/2 19:40,0,0,0.2,0,0.54,0.02,0.06,0.05,0.05,0,0,0,0,0.5,0.17,0.05
2022/9/2 19:50,0,0,0.1,0,1.13,0.02,0.06,0.06,0.06,0.1,0,0,0,1.1,0.17,0.05
2022/9/2 20:00,0,0,0.1,0,0.83,0.02,0.07,0.05,0.05,0,0,0,0,0.8,0.17,0.05
2022/9/2 20:10,0,0,0.2,0,0.63,0.02,0.06,0.06,0.06,0,0,0,0,0.6,0.18,0.05
2022/9/2 20:20,0,0,0.1,0,0.62,0.02,0.07,0.05,0.06,0.1,0,0,0,0.6,0.17,0.05
2022/9/2 20:30,0,0,0.3,0,0.33,0.01,0.06,0.06,0.05,0,0,0,0,0.3,0.17,0.05
2022/9/2 20:40,0,0,0.1,0,0.52,0.02,0.07,0.05,0.06,0.1,0,0,0,0.5,0.17,0.05
2022/9/2 20:50,0,0,0,0,0.63,0.02,0.06,0.06,0.05,0,0,0,0,0.6,0.17,0.06
2022/9/2 21:00,0,0,0,0,0.52,0.02,0.06,0.05,0.06,0.1,0,0,0,0.5,0.17,0.05
2022/9/2 21:10,0,0,0,0,0.63,0.02,0.07,0.06,0.05,0,0,0,0,0.62,0.17,0.05
2022/9/2 21:20,0,0,0,0,0.52,0.02,0.06,0.05,0.06,0.1,0,0,0,0.5,0.17,0.05
2022/9/2 21:30,0,0,0,0,0.63,0.02,0.06,0.06,0.05,0,0,0,0,0.6,0.17,0.05
2022/9/2 21:40,0,0,0,0,0.32,0.02,0.07,0.05,0.06,0,0,0,0,0.3,0.16,0.05
2022/9/2 21:50,0,0,0,0,0.63,0.02,0.06,0.05,0.07,0.1,0,0,0,0.6,0.18,0.05
2022/9/2 22:00,0,0,0,0,0.53,0.02,0.07,0.06,0.1,0,0,0,0,0.5,0.16,0.05
2022/9/2 22:10,0,0,0,0,0.63,0.01,0.06,0.05,0.09,0.1,0,0,0,0.6,0.17,0.05
2022/9/2 22:20,0,0,0,0,0.52,0.02,0.07,0.06,0.1,0,0,0,0,0.5,0.17,0.05
2022/9/2 22:30,0,0,0,0,0.53,0.02,0.06,0.05,0.09,0.1,0,0,0,0.5,0.18,0.05
2022/9/2 22:40,0,0,0,0,0.43,0.02,0.06,0.06,0.1,0,0,0,0,0.4,0.17,0.05
2022/9/2 22:50,0,0,0,0,0.11,0.02,0.07,0.07,0.06,0.1,0,0,0,0.1,0.17,0.06
2022/9/2 23:00,0,0,0,0,0,0.02,0.06,0.1,0.05,0.1,0,0,0,0,0.17,0.05
2022/9/2 23:10,0,0,0,0,0,0.02,0.06,0.09,0.06,0,0,0,0,0,0.17,0.05
2022/9/2 23:20,0,0,0,0,0,0.02,0.07,0.1,0.05,0.1,0,0,0,0,0.16,0.05
2022/9/2 23:30,0,0,0,0,0,0.02,0.06,0.1,0.06,0.1,0,0,0,0,0.18,0.05
2022/9/2 23:40,0,0,0,0,0,0.01,0.05,0.09,0.05,0,0,0,0,0,0.17,0.05
2022/9/2 23:50,0,0,0,0,0,0.02,0.05,0.1,0.06,0.1,0,0,0,0,0.16,0.05
2022/9/3 0:00,0,0,0,0,0,0.02,0.06,0.1,0.05,0.1,0,0,0,0.02,0.18,0.05
2022/9/3 0:10,0,0,0,0,0,0.02,0.05,0.1,0.06,0,0,0,0,0,0.17,0.05
2022/9/3 0:20,0,0,0,0,0,0.02,0.05,0.09,0.05,0.1,0,0,0,0,0.17,0.05
2022/9/3 0:30,0,0,0,0,0,0.02,0.05,0.07,0.06,0.1,0,0,0,0,0.17,0.05
2022/9/3 0:40,0,0,0,0,0,0.02,0.06,0.06,0.05,0.1,0,0,0,0,0.17,0.05
2022/9/3 0:50,0,0,0,0,0.1,0.02,0.05,0.05,0.06,0,0,0,0,0.1,0.16,0.05
2022/9/3 1:00,0,0,0,0,0,0.02,0.05,0.05,0.05,0.1,0,0,0,0,0.17,0.05
2022/9/3 1:10,0,0,0,0,0,0.01,0.05,0.06,0.06,0,0,0,0,0,0.17,0.05
2022/9/3 1:20,0,0,0,0,0,0.02,0.05,0.05,0.05,0.1,0,0,0,0,0.17,0.05
2022/9/3 1:30,0,0,0,0,0,0.02,0.05,0.06,0.05,0.1,0,0,0,0,0.17,0.05
2022/9/3 1:40,0,0,0,0,0,0.02,0.06,0.05,0.06,0.1,0,0,0,0,0.16,0.05
2022/9/3 1:50,0,0,0,0,0,0.02,0.05,0.05,0.05,0,0,0,0,0,0.17,0.05
2022/9/3 2:00,0,0,0,0,0,0.02,0.05,0.06,0.06,0.1,0,0,0,0,0.17,0.05
2022/9/3 2:10,0,0,0,0,0,0.02,0.05,0.05,0.05,0,0,0,0,0,0.17,0.05
2022/9/3 2:20,0,0,0,0,0,0.02,0.05,0.06,0.06,0.1,0,0,0,0,0.17,0.05
2022/9/3 2:30,0,0,0,0,0,0.01,0.06,0.05,0.05,0.1,0,0,0,0,0.17,0.05
2022/9/3 2:40,0,0,0,0,0,0.02,0.05,0.05,0.05,0,0,0,0,0,0.16,0.05
2022/9/3 2:50,0,0,0,0,0.1,0.02,0.05,0.06,0.06,0.1,0,0,0,0.1,0.18,0.05
2022/9/3 3:00,0,0,0,0,0,0.02,0.05,0.05,0.05,0.1,0,0,0,0,0.16,0.05
2022/9/3 3:10,0,0,0,0,0,0.02,0.05,0.06,0.05,0.1,0,0,0,0,0.17,0.05
2022/9/3 3:20,0,0,0,0,0,0.02,0.05,0.05,0.06,0,0,0,0,0,0.17,0.05
2022/9/3 3:30,0,0,0,0,0,0.02,0.06,0.05,0.05,0.1,0,0,0,0,0.16,0.05
2022/9/3 3:40,0,0,0,0,0,0.01,0.05,0.06,0.05,0.1,0,0,0,0,0.17,0.05
2022/9/3 3:50,0,0,0,0,0,0.02,0.05,0.05,0.06,0.1,0,0,0,0,0.17,0.05
2022/9/3 4:00,0,0,0,0,0,0.02,0.05,0.05,0.05,0.1,0,0,0,0,0.16,0.05
2022/9/3 4:10,0,0,0,0,0,0.02,0.05,0.06,0.06,0.1,0,0,0,0,0.17,0.05
2022/9/3 4:20,0,0,0,0,0,0.02,0.05,0.05,0.05,0,0,0,0,0,0.17,0.05
2022/9/3 4:30,0,0,0,0,0,0.02,0.05,0.05,0.05,0.1,0,0,0,0,0.17,0.05
2022/9/3 4:40,0,0,0,0,0,0.02,0.06,0.06,0.06,0,0,0,0,0,0.16,0.05
2022/9/3 4:50,0,0,0,0,0,0.01,0.05,0.05,0.05,0.1,0,0,0,0,0.17,0.05
2022/9/3 5:00,0,0,0,0,0.1,0.02,0.05,0.05,0.05,0.1,0,0,0,0.1,0.17,0.05
2022/9/3 5:10,0,0,0,0,0,0.02,0.05,0.06,0.06,0.1,0,0,0,0,0.16,0.05
2022/9/3 5:20,0,0,0,0,0,0.02,0.05,0.05,0.05,0.1,0,0,0,0,0.17,0.05
2022/9/3 5:30,0,0,0,0,0,0.02,0.05,0.06,0.06,0.1,0,0,0,0,0.17,0.05
2022/9/3 5:40,0,0,0,0,0,0.02,0.06,0.05,0.05,0.1,0,0,0,0,0.17,0.05
2022/9/3 5:50,0,0,0,0,0,0.02,0.05,0.05,0.06,0.1,0,0,0,0,0.17,0.05
2022/9/3 6:00,0,0,0,0,0,0.02,0.05,0.06,0.05,0,0,0,0,0,0.17,0.05
2022/9/3 6:10,0,0,0,0,0,0.01,0.05,0.06,0.06,0.1,0,0,0,0,0.17,0.05
2022/9/3 6:20,0,0,0,0,0,0.02,0.06,0.05,0.05,0.1,0,0,0,0,0.17,0.05
2022/9/3 6:30,0,0,0,0,0,0.02,0.05,0.06,0.06,0,0,0,0,0,0.17,0.05